Strona główna
METAR-TAF:

METAR-TAF

Lotnisko :

Tanagra, Grecja

Szerokość geograficzna: 38-19N, Długość geograficzna: 023-32E, wysokość: 148 m

METAR: brakujący

czas: 13:04 (11:04 UTC)

Prognoza

Raport powstał 3 godziny i 4 minut temu, godzina 08:00 UTC
Prognoza ważna od 18 godzina 09 UTC do 18 godzina 18 UTC
Wiatr 3 kt z kierunków zmiennych
Widzialność 10 km lub więcej
Mało chmury na wysokości 3000 ft

TAF: LGTG 180800Z 1809/1818 VRB03KT 9999 FEW030

Obserwacja i prognoza pogody dla ponad 4000 lotnisk (raport METAR i TAF).

Dostępne stacje oznaczono żółtymi i czerwonymi punktami na mapie.

Najedź kursorem aby zobaczyć nazwę stacji.

Kliknij aby zobaczyć obserwacje i prognozy pogody.

Aby zmienić mapę: kliknij na zielony przycisk z czarnym krzyżykiem, aby powiększyć; na zielony przycisk z myślnikiem, aby pomniejszyć; na zielone strzałki, aby przejść do map sąsiednich.


METAR-TAF: